184  
ASUS44 KMAF 260510  
RWRMAF  
MIDLAND AREA WEATHER ROUNDUP  
NATIONAL WEATHER SERVICE MIDLAND TX  
1200 AM CDT SUN MAR 26 2017  
   
..IN SOUTHWEST TEXAS AND SOUTHEAST NEW MEXICO
 
 
 
CITY SKY/WX TMP DP RH WIND PRES REMARKS
 
ALPINE CLEAR 63 23 21 S8 29.99F  
ANDREWS FAIR 58 28 31 S10 29.87F  
ARTESIA CLEAR 57 28 33 S13 29.84F  
BIG SPRING PTCLDY 61 30 30 SE10 29.89F  
CARLSBAD CLEAR 62 26 25 S9 29.83F  
DRYDEN N/A 64 31 28 NE8 29.85F  
FORT STOCKTON CLEAR 66 31 27 S18 29.86F  
GUAD PASS CLEAR 62 13 14 SW12 29.95  
HOBBS CLEAR 54 25 32 SE3 29.87F  
MARFA CLEAR 43 12 28 W3 29.97F  
MIDLAND AIRPK CLEAR 67 27 22 S14 29.86F  
MIDLAND INTL CLEAR 58 28 32 SE8 29.86F  
ODESSA CLEAR 64 26 23 SE12 29.86F  
PECOS CLEAR 64 23 21 SE10 29.81S  
PRESIDIO FAIR 71 14 11 N8 29.86F  
SEMINOLE CLEAR 52 29 41 CALM 29.87F  
SNYDER PTCLDY 60 35 39 SE10 29.88F  
WINK CLEAR 64 25 22 SE12 29.82F  

   
..OTHER STATIONS IN TEXAS
 
 
 
CITY SKY/WX TMP DP RH WIND PRES REMARKS
 
ABILENE PTCLDY 56 40 55 SE10 29.89F  
AMARILLO CLEAR 52 30 43 SE13 29.87F  
AUSTIN CLEAR 56 52 86 CALM 29.92F  
BROWNSVILLE CLEAR 69 67 93 SE7 29.94F  
CORPUS CHRISTI PTCLDY 70 69 97 SE12 29.92F  
DALLAS FTW CLEAR 61 48 62 E6 29.90F  
DEL RIO CLEAR 67 38 34 E7 29.85F  
EL PASO PTCLDY 74 8 8 SW22G33 29.86R  
HOUSTON INT CLEAR 61 55 81 CALM 29.94F  
LUBBOCK PTCLDY 56 32 40 SE12 29.86F  
SAN ANGELO CLEAR 53 33 46 S3 29.89S  
SAN ANTONIO CLEAR 65 51 60 SE6 29.91F  
WACO CLEAR 55 49 80 E6 29.93S  
WICHITA FALLS NOT AVBL  

   
..OTHER LOCATIONS IN NEW MEXICO
 
 
 
CITY SKY/WX TMP DP RH WIND PRES REMARKS
 
ALAMAGORDO PTCLDY 64 14 14 S12 29.87R  
ALBUQUERQUE PTCLDY 54 27 35 W24G36 29.93R  
CANNON AFB CLEAR 48 30 48 SE6 29.85F  
CLOVIS CLEAR 50 27 40 S9 29.85F  
HOLLOMAN AFB CLOUDY 60 14 16 S12 29.88S  
ROSWELL CLEAR 59 24 26 S10 N/A  
RUIDOSO CLEAR 50 10 20 SE8 29.97F  
SANTA FE CLOUDY 49 33 54 NW12 29.94R  
TRUTH OR CONSE PTCLDY 58 15 18 W9 29.90R  
TUCUMCARI CLEAR 57 26 30 SW13G23 29.80S  

 
 
 
CLICK HERE TO GO TO PREVIOUS BULLETINS.

The Nexlab TX Page
The Nexlab NM Page Main Text Page